Printer-friendly version

IAU Minor Planet Center

Minor Planet Center

(43) Ariadne

Orbital Elements

The following orbital elements are taken from MPO 77281
   (43) Ariadne
Epoch 2007 Apr. 10.0 TT = JDT 2454200.5                 Goffin
M 252.23497              (2000.0)            P               Q
n   0.30142093     Peri.   15.97082     +0.18869266     +0.98018593
a   2.2030302      Node   264.93496     -0.90749176     +0.15059206
e   0.1680604      Incl.    3.46799     -0.37530493     +0.12867627
P   3.27           H    7.93          G   0.11           U   0
From 1358 observations at 89 oppositions, 1857-2004, mean residual 0".54.
An explanation of the orbital elements is available.

These orbital elements are also available in forms suitable for loading into a number of popular planetarium-type software programs.


Ephemeris

The following ephemeris is at intervals of five days. A daily ephemeris covering the same time interval is also available.

Personalized ephemerides for this object (and others) can be generated using the MPES.

Date    TT    R. A. (2000) Decl.     Delta      r     Elong.  Phase     V
2007 01 06    09 59.65   +08 11.7    1.693    2.495   135.9    15.9    12.0
2007 01 11    09 57.37   +08 12.7    1.643    2.490   141.5    14.2    11.8
2007 01 16    09 54.37   +08 17.9    1.599    2.484   147.3    12.4    11.7
2007 01 21    09 50.69   +08 27.1    1.560    2.478   153.2    10.3    11.6
2007 01 26    09 46.40   +08 40.0    1.527    2.472   159.2     8.1    11.4
2007 01 31    09 41.60   +08 56.2    1.501    2.466   165.2     5.8    11.3
2007 02 05    09 36.42   +09 15.1    1.482    2.460   171.0     3.6    11.1
2007 02 10    09 31.01   +09 36.2    1.469    2.454   175.0     2.0    11.0
2007 02 15    09 25.52   +09 58.7    1.464    2.447   172.8     2.9    11.0
2007 02 20    09 20.14   +10 21.8    1.466    2.441   167.3     5.1    11.1
2007 02 25    09 15.03   +10 44.6    1.475    2.434   161.3     7.5    11.3
2007 03 02    09 10.35   +11 06.6    1.491    2.427   155.3     9.8    11.4
2007 03 07    09 06.23   +11 27.0    1.513    2.420   149.3    12.1    11.5
2007 03 12    09 02.76   +11 45.5    1.541    2.412   143.5    14.2    11.6
2007 03 17    09 00.03   +12 01.5    1.573    2.405   137.8    16.1    11.7
2007 03 22    08 58.07   +12 14.9    1.610    2.398   132.4    17.9    11.8

Back to Bright Minor Planets

Astronomical Headlines Index

MPC


Valid HTML 4.01!